RH
87 85 84 81 80 79 77 75 75 75 75 74 74 73 74 74 75 77 76 75 76 79 84 88 90 95 98 99 98 99 101 97 90 89 93 92 84 80 81 82 87 94 93 85 79 78 78 77 81 83 81 80 77 69 63 63 68 75 81 87 92 96 101
94 93 90 88 88 87 84 82 81 81 81 81 84 85 83 78 74 75 76 75 76 76 78 82 88 93 94 91 89 91 97 100 97 96 98 98 92 83 75 76 84 90 93 90 79 71 72 74 76 74 67 67 69 67 64 61 62 69 77 85 92 95 99
99 98 97 95 94 92 90 90 89 89 89 89 92 96 95 90 85 83 83 83 84 83 83 84 84 78 75 84 93 95 98 101 100 99 99 99 99 92 77 72 79 83 84 87 83 76 72 70 76 78 67 57 54 60 69 67 59 60 67 77 87 93 95
100 100 100 99 99 97 95 95 95 95 95 94 95 97 98 98 96 95 95 94 95 94 90 88 86 79 79 93 103 100 98 100 100 100 100 99 101 97 83 77 80 78 77 81 79 77 76 70 73 82 76 58 51 60 72 72 64 59 59 65 76 86 92
100 100 100 100 100 100 99 98 97 97 97 97 96 95 95 96 97 98 100 99 100 101 98 96 97 96 96 101 101 95 95 99 99 100 100 99 101 99 91 83 75 67 73 81 78 79 86 78 72 80 77 60 55 63 72 75 73 67 62 63 66 75 87
100 100 100 100 100 100 100 100 99 99 99 99 99 98 97 96 97 99 100 100 100 100 98 100 100 100 101 101 95 92 94 98 100 100 100 99 99 98 93 82 65 57 68 80 82 88 92 81 75 81 77 62 59 70 79 83 81 74 71 70 66 66 78
100 100 100 100 100 100 100 100 100 100 100 100 100 99 99 99 99 101 100 100 101 100 98 100 100 101 101 95 88 91 98 101 99 98 100 99 92 88 91 87 75 69 72 76 83 90 87 77 78 86 84 73 70 79 89 91 87 80 77 78 74 67 72
100 100 100 100 100 100 100 100 100 100 100 100 100 100 100 100 100 101 101 97 91 86 90 96 98 99 96 87 84 92 100 101 98 98 100 98 89 84 89 90 83 82 82 78 83 92 87 78 81 87 89 85 83 87 91 89 87 82 78 83 85 80 76
100 100 100 100 100 100 100 100 100 100 100 100 100 100 100 100 100 100 102 98 84 68 68 80 88 90 86 80 83 94 99 100 100 100 100 98 91 85 86 86 83 88 93 86 86 95 93 85 87 93 94 92 87 81 78 81 86 86 84 88 92 91 86
100 100 100 100 100 100 100 100 100 100 100 100 100 100 100 100 100 100 100 101 90 70 59 64 74 80 80 77 81 91 98 100 100 99 99 101 98 90 85 84 82 85 91 91 92 96 92 86 87 92 96 97 87 76 75 82 88 89 90 95 97 95 91
100 100 100 100 100 100 100 100 100 100 100 100 100 100 100 100 100 100 100 101 97 82 63 56 62 70 74 75 79 86 95 99 100 98 95 94 98 98 91 86 86 89 92 95 98 95 88 85 85 89 95 95 89 83 79 78 81 88 95 100 100 97 92
100 100 100 100 100 100 100 100 100 100 100 100 100 100 100 100 100 100 100 100 101 91 70 54 54 63 68 70 73 82 91 96 98 99 93 84 85 93 94 90 95 101 98 95 95 90 85 85 87 90 90 85 87 94 88 75 76 87 96 100 100 97 94
100 100 100 101 100 99 98 98 99 101 100 100 100 100 100 100 100 100 100 99 100 97 81 61 52 56 63 66 68 74 82 89 94 99 98 90 86 92 96 93 94 99 98 95 94 93 91 89 89 91 88 80 86 99 95 83 80 85 94 101 99 94 93
100 98 97 100 101 99 96 95 96 99 100 100 100 100 100 100 100 100 100 100 99 100 94 81 66 57 56 59 63 67 71 78 88 97 100 99 97 99 99 95 92 94 95 93 93 95 94 92 90 92 92 90 93 98 97 94 92 90 94 99 98 95 96
99 93 91 96 100 99 96 94 96 98 96 95 97 100 100 100 100 100 100 100 100 100 100 98 91 79 66 57 55 59 65 70 76 87 97 100 100 100 100 99 97 94 92 92 94 94 90 87 88 93 96 97 98 97 96 98 99 99 97 97 98 99 99
98 91 88 92 98 100 97 92 94 97 95 92 94 98 100 100 100 100 100 100 100 100 100 100 100 98 91 77 62 55 62 67 67 74 89 100 100 97 94 94 91 86 84 86 89 91 91 88 88 93 98 99 97 94 92 92 93 96 99 100 100 100 99
96 88 88 93 97 101 99 94 95 98 98 97 97 98 100 100 100 100 100 100 100 100 100 100 100 100 101 97 83 64 57 60 61 65 80 95 99 96 90 85 80 76 74 74 76 80 83 84 84 88 95 100 99 94 90 86 81 83 94 100 100 100 100
92 85 91 98 100 100 100 98 99 101 100 100 100 100 100 100 100 100 100 100 101 99 97 99 100 100 99 101 97 79 60 55 56 60 71 86 94 96 92 83 76 73 69 69 73 73 73 75 77 79 85 93 99 99 95 88 78 77 91 101 101 99 100
93 90 96 101 101 100 100 100 100 99 98 99 98 99 101 100 99 100 100 99 101 98 95 96 100 101 99 100 101 88 66 54 55 59 69 81 88 92 90 84 81 78 71 69 74 74 74 72 67 69 75 81 90 99 98 91 82 77 85 96 101 99 100
97 98 99 100 100 100 100 100 99 98 97 96 93 95 99 100 99 100 100 99 100 99 97 96 98 100 100 99 101 92 69 53 54 60 67 78 86 88 87 84 84 81 76 75 77 76 74 68 62 68 75 77 87 99 98 91 85 79 80 92 101 100 99
98 100 99 99 100 100 100 100 100 99 96 94 92 94 98 100 100 100 100 100 100 100 99 98 98 100 100 99 102 97 74 53 52 58 63 71 80 82 82 82 81 78 75 75 73 69 66 61 62 76 82 80 89 100 95 88 86 81 82 93 101 100 99
97 100 100 99 100 100 100 100 99 100 98 97 97 98 99 100 100 100 100 100 99 99 100 100 100 100 100 99 101 100 83 61 53 55 58 64 71 74 75 76 73 71 73 75 76 78 75 67 68 82 91 89 91 93 88 87 87 81 82 93 100 100 99
98 100 100 100 100 100 100 100 99 100 99 98 100 100 99 99 99 99 100 101 100 100 100 100 100 100 101 100 99 101 97 83 70 63 58 58 60 61 63 66 69 74 82 89 94 96 95 87 81 87 95 97 94 88 87 92 93 85 80 87 96 100 100
100 100 100 100 100 100 100 99 100 100 98 97 97 97 96 98 100 99 100 100 99 98 97 99 100 99 99 98 95 97 99 98 92 85 76 70 68 67 70 78 86 91 96 100 101 99 97 95 90 91 96 98 95 91 91 95 97 89 78 79 89 98 100
100 100 100 100 100 99 99 99 100 100 98 96 97 95 92 92 97 101 101 100 98 97 96 99 100 99 98 96 95 95 95 97 99 98 95 93 92 91 93 96 99 100 99 100 100 99 98 96 93 94 97 97 97 96 95 96 95 86 74 72 81 94 100
100 100 100 100 99 99 99 100 100 100 98 97 98 98 91 84 85 93 98 100 100 100 100 100 100 100 100 99 99 99 98 98 100 99 99 100 100 100 100 100 100 100 100 99 100 99 100 99 98 98 96 96 99 100 99 98 94 83 73 69 75 89 100
100 100 100 100 100 98 99 99 99 100 100 99 99 99 91 80 76 81 89 95 96 97 99 101 100 100 101 100 100 100 100 100 100 99 99 100 100 100 100 100 100 100 99 98 99 99 99 100 100 97 93 93 97 99 98 100 98 89 80 76 78 91 100
100 100 100 100 100 99 99 100 99 100 100 100 100 99 92 83 78 78 85 93 96 97 99 101 100 100 100 100 100 100 100 100 100 99 99 100 100 100 100 98 99 100 99 99 99 99 100 100 98 95 93 93 94 94 96 100 98 89 85 86 91 97 101
100 100 100 100 100 100 99 100 100 100 100 99 101 100 95 87 81 81 86 93 97 99 100 100 100 100 100 100 100 100 100 100 100 100 100 99 98 99 99 97 95 94 96 99 100 99 100 100 98 97 98 96 95 95 99 101 95 88 88 94 99 100 100
100 100 100 100 100 100 100 100 100 100 100 99 100 100 95 86 81 82 88 92 97 100 101 100 100 100 100 100 100 100 100 100 99 99 98 96 95 95 97 98 97 93 91 94 98 100 100 100 100 100 100 100 98 98 100 100 95 90 93 98 100 100 100
101 101 100 100 100 100 100 100 100 100 100 100 100 100 97 88 82 85 90 94 97 100 101 100 100 100 99 99 99 98 98 99 99 98 97 95 93 91 90 94 97 98 95 94 96 99 100 100 100 100 99 99 98 97 99 100 98 95 97 100 100 100 100
101 101 100 100 100 100 100 100 100 100 100 100 100 101 99 93 87 88 94 96 97 99 100 100 101 100 100 100 99 98 99 99 100 100 98 97 97 96 94 93 95 97 99 99 99 100 100 100 100 100 100 99 97 97 98 99 98 97 99 101 100 99 100
100 101 101 100 100 100 100 100 100 100 100 100 100 100 100 97 93 92 95 96 97 99 100 100 100 100 100 100 100 100 100 99 99 97 93 92 92 94 95 97 98 98 99 100 100 100 100 100 100 100 100 100 99 99 99 99 98 99 100 100 100 100 100
93 98 101 101 100 100 101 101 100 100 100 100 100 100 100 100 97 95 95 97 97 99 100 100 101 101 101 100 100 99 96 94 93 91 88 85 83 82 83 87 93 98 100 100 100 100 100 100 100 100 100 100 100 99 99 100 100 100 100 100 100 100 98
85 90 96 99 100 100 100 100 100 100 100 100 100 100 100 101 99 96 96 98 100 100 101 101 100 100 98 96 94 92 89 87 85 84 84 82 80 78 77 77 81 91 100 101 99 100 100 100 100 100 100 100 100 100 100 100 100 100 100 101 99 96 93
86 86 89 93 97 99 100 100 100 100 100 100 100 100 100 100 98 94 94 96 99 100 101 101 99 96 94 91 87 84 82 80 78 78 81 84 84 81 78 76 75 83 95 101 100 99 101 100 100 100 100 99 100 100 100 100 100 100 100 101 98 95 94
Wind_Speed
23 23 24 24 24 23 23 24 23 23 23 23 24 24 24 25 26 26 27 27 27 27 26 27 28 28 27 26 26 25 24 26 28 30 29 30 32 33 33 32 31 32 32 33 34 33 30 25 25 28 29 27 26 27 28 30 30 31 33 37 41 48 54
22 22 23 23 24 23 23 23 23 23 23 24 24 24 24 24 25 26 27 27 27 27 27 28 28 28 27 26 26 27 26 25 26 27 28 29 31 33 34 33 32 32 32 32 35 37 35 28 26 31 34 33 33 31 29 31 31 30 30 32 36 41 48
22 22 22 22 23 23 23 23 23 22 22 23 24 24 24 23 23 24 25 26 27 26 27 28 29 30 28 26 26 26 25 26 27 27 27 29 30 31 33 34 33 33 34 34 34 35 37 32 26 29 33 35 36 34 32 32 33 32 31 30 32 35 40
23 23 23 22 22 22 23 23 22 22 22 23 24 24 25 25 25 25 25 25 26 25 26 27 27 27 26 26 29 27 22 23 27 28 27 29 30 32 33 33 32 33 34 35 36 34 35 34 29 28 30 34 36 35 34 33 33 34 34 32 31 32 35
23 23 23 23 22 22 22 21 21 22 22 24 24 24 25 25 26 28 28 26 25 25 26 24 23 23 24 24 29 31 26 22 24 28 28 28 29 31 32 32 33 35 34 35 38 36 34 33 31 29 29 32 33 33 34 33 32 33 34 34 33 32 33
22 22 23 23 23 23 23 23 22 22 23 24 25 25 25 25 24 26 28 29 28 29 30 27 24 23 23 24 28 32 30 24 20 23 27 30 30 29 30 31 34 36 35 34 37 35 33 33 31 29 31 33 33 33 32 32 32 32 32 34 34 33 32
21 21 21 21 22 22 23 23 23 24 24 24 25 25 26 26 25 25 27 28 29 31 33 33 31 28 26 29 31 30 29 27 24 22 24 29 31 30 28 28 30 32 33 34 35 35 34 34 30 28 31 33 33 33 31 31 32 33 33 33 34 34 33
20 20 19 19 19 20 21 22 23 24 24 24 24 25 26 26 27 27 28 29 31 32 34 36 35 34 32 33 32 28 27 28 27 26 25 26 28 29 30 29 29 31 31 32 34 33 32 31 28 28 31 32 32 32 32 32 32 32 33 34 34 33 32
19 19 19 19 18 18 18 20 21 22 22 22 22 22 23 23 24 26 27 30 32 33 35 37 37 36 35 35 32 28 27 27 27 27 27 25 24 27 30 31 30 31 32 33 33 31 29 29 28 28 28 29 30 31 32 32 31 31 33 34 34 34 33
18 18 19 18 18 18 18 18 19 18 17 18 19 21 22 22 22 22 23 26 28 30 32 35 37 37 36 35 32 28 26 27 27 28 28 26 23 25 29 30 30 32 33 33 31 28 27 29 30 28 26 26 29 31 30 29 30 31 32 33 34 34 33
18 18 18 17 17 17 17 17 16 15 14 14 15 19 22 24 23 22 22 22 24 26 28 31 35 37 35 34 32 28 26 26 27 29 31 30 27 26 28 29 29 30 30 28 27 27 27 28 29 28 26 26 28 30 30 29 29 30 30 31 33 33 33
18 18 17 17 17 16 16 16 15 14 13 12 13 16 21 25 26 25 24 23 22 23 25 27 31 33 34 33 31 29 27 25 25 27 30 31 31 29 28 27 26 25 25 25 25 26 27 27 27 25 25 26 26 27 28 27 27 28 29 29 30 30 30
18 18 17 17 17 17 17 16 14 14 13 12 11 13 18 23 26 26 25 24 22 21 21 24 27 30 32 33 31 30 29 26 24 25 26 29 31 29 28 29 29 26 25 25 25 25 25 26 26 25 26 27 26 26 27 26 25 26 28 29 28 26 26
18 18 17 17 17 17 18 17 15 14 14 13 11 11 14 19 22 24 25 25 25 23 22 22 24 28 31 33 33 31 31 28 24 22 23 26 28 28 27 29 30 28 27 27 26 26 26 25 25 25 26 26 23 22 24 24 23 22 24 25 25 25 25
20 20 19 18 18 19 18 17 15 14 14 15 13 12 15 19 22 25 27 27 27 27 25 23 23 24 27 31 34 34 32 30 26 23 23 25 26 26 26 27 28 27 26 26 26 27 27 26 26 26 25 24 21 18 17 17 17 17 19 20 21 23 25
21 22 21 19 18 18 18 16 14 15 16 16 15 13 14 17 20 22 24 24 24 24 25 24 24 24 25 27 30 33 33 31 28 26 25 24 24 24 24 25 26 25 24 24 24 24 25 25 26 26 26 24 22 19 16 14 14 16 18 19 21 23 23
21 22 22 20 18 17 18 17 14 14 15 16 15 14 15 16 17 18 21 21 20 19 20 22 23 23 24 25 25 28 32 32 31 29 27 24 23 24 24 25 25 24 23 23 22 22 23 24 25 25 26 24 23 22 20 18 17 18 19 21 22 23 23
22 22 21 20 18 16 17 17 14 12 13 14 14 15 15 16 16 17 18 19 18 17 17 18 18 19 22 24 22 22 27 32 31 31 29 25 23 24 26 27 26 25 25 24 23 22 22 23 24 24 24 24 25 24 22 21 20 19 19 21 22 23 22
22 21 19 19 18 17 18 19 17 14 14 14 14 14 15 15 16 16 16 16 17 18 17 16 14 14 17 20 20 18 22 29 31 30 29 26 24 26 28 28 27 27 27 26 26 25 25 24 25 25 25 26 26 25 23 22 21 20 20 21 21 21 20
21 20 19 21 21 20 20 20 18 15 14 14 13 12 13 13 14 15 15 14 14 15 17 17 15 13 13 15 16 15 18 24 28 29 28 27 27 28 29 27 26 27 28 27 28 28 27 27 26 25 25 25 26 26 25 24 22 19 20 21 20 20 20
19 20 22 24 24 23 19 17 16 14 14 13 12 11 11 12 13 14 14 13 12 12 14 15 15 15 13 11 10 10 14 20 25 27 28 28 28 28 26 24 24 26 27 27 28 29 28 28 26 24 24 24 25 26 27 25 22 18 17 19 19 19 21
20 23 24 25 24 21 17 14 14 15 14 12 12 13 12 12 13 13 14 14 13 12 11 10 11 13 12 10 8 8 11 18 23 25 27 29 28 26 25 25 26 28 29 28 27 26 25 25 24 23 23 22 23 25 26 24 20 17 17 19 19 19 21
23 24 24 24 22 18 15 14 14 16 16 14 12 11 10 10 11 11 12 12 12 12 11 9 8 9 9 10 10 9 11 15 20 23 27 29 28 27 26 27 28 29 27 24 22 21 21 22 22 22 22 22 22 23 23 23 20 18 18 19 19 20 21
23 23 23 24 22 17 16 17 16 15 17 18 15 12 10 10 11 10 8 9 9 11 12 11 11 12 13 15 16 14 13 15 17 20 23 25 26 26 27 27 28 27 25 23 22 21 22 22 22 21 21 22 24 24 22 22 22 20 19 18 19 19 20
23 22 22 24 23 19 18 20 18 16 17 18 18 17 15 12 12 10 9 7 8 10 11 12 14 14 14 15 16 15 15 16 17 19 20 21 21 22 22 23 25 26 28 29 28 25 23 23 22 20 18 19 22 25 24 22 21 19 18 19 19 18 19
22 21 21 23 23 20 19 20 19 17 18 19 18 18 17 16 12 10 8 8 8 10 12 13 14 12 9 8 10 11 12 14 16 19 21 22 23 23 22 21 22 22 24 27 29 28 25 24 22 20 19 18 20 23 23 21 20 19 18 19 20 18 17
20 20 21 23 23 21 19 20 19 19 20 20 19 18 18 17 15 11 8 8 9 11 12 13 13 12 10 9 10 10 11 13 15 18 21 23 24 26 26 26 25 24 22 21 23 26 26 24 22 21 20 20 21 23 22 21 20 19 19 20 20 18 17
19 18 19 21 21 19 19 20 20 20 20 19 19 19 17 17 16 15 12 10 10 10 10 10 10 11 11 10 10 11 11 12 13 13 15 17 19 22 24 25 25 25 25 22 21 23 26 25 24 23 22 21 21 22 22 21 20 18 18 18 18 18 18
18 16 16 17 17 16 17 20 21 21 20 17 15 16 16 15 16 15 14 13 12 10 8 7 8 9 8 8 8 9 9 10 10 11 12 13 14 16 19 21 23 25 26 25 22 22 24 26 25 24 23 23 23 22 21 21 20 18 17 16 17 19 19
16 16 14 15 15 13 13 15 17 18 17 15 13 13 13 13 14 14 15 14 13 10 8 7 8 8 8 8 8 8 9 10 10 11 12 13 13 13 13 16 19 22 25 27 25 24 24 25 25 24 24 24 24 24 23 22 20 18 16 16 18 19 20
14 16 15 14 15 15 13 14 15 15 14 13 12 12 13 13 13 14 14 14 12 10 9 7 6 6 7 7 8 8 9 9 9 10 10 11 12 12 12 13 15 18 22 25 26 24 24 25 25 24 25 25 25 25 25 23 21 19 18 17 18 19 20
13 15 15 15 15 15 16 16 15 15 14 13 11 11 12 13 13 14 14 14 12 9 6 4 2 2 3 3 3 3 4 4 3 4 5 6 7 8 10 11 12 14 18 22 24 23 24 27 27 25 25 26 26 25 25 24 23 22 20 20 21 20 19
13 13 13 14 14 15 15 15 15 14 13 11 11 11 11 12 13 13 13 11 8 5 3 3 2 2 2 3 2 2 2 2 2 3 3 4 4 4 5 6 8 10 13 18 21 22 23 27 28 26 25 26 26 25 25 25 25 24 23 23 23 21 18
13 12 11 12 13 13 13 13 12 12 11 11 11 10 10 10 10 11 10 8 5 4 4 4 4 5 5 4 4 4 4 5 5 5 5 5 6 6 6 6 6 7 9 13 19 21 22 26 29 27 27 27 27 25 25 25 25 25 25 25 24 21 18
15 14 12 12 12 12 11 10 10 10 11 11 10 9 8 7 7 7 6 5 4 4 4 5 5 5 5 6 6 7 8 8 8 8 8 8 8 8 8 7 7 7 7 8 14 19 21 25 28 28 28 27 27 27 26 25 24 25 25 26 25 22 20
18 16 14 12 12 11 10 9 10 10 10 10 9 8 7 5 5 5 5 4 3 3 3 4 5 5 6 7 8 9 10 11 11 11 11 10 9 8 8 8 7 6 5 5 7 14 18 21 24 27 27 27 27 27 27 26 24 24 25 26 26 25 24
Wind_Direction
283 281 280 278 276 275 273 271 269 268 266 264 262 261 259 255 250 248 248 248 249 248 247 247 248 248 245 243 244 244 243 242 241 241 242 244 244 244 245 247 250 255 257 257 255 253 255 261 265 266 267 267 264 259 256 255 255 255 254 253 250 243 235
283 281 279 278 275 273 272 270 268 267 265 263 262 261 259 256 252 250 249 249 249 248 246 245 245 244 242 241 245 247 246 245 243 241 240 242 244 244 244 244 247 252 256 257 258 256 256 260 262 262 263 264 264 265 264 260 258 258 258 256 254 250 242
284 281 279 277 275 272 271 269 267 265 263 262 261 260 258 256 252 250 250 250 249 248 247 246 247 245 242 241 244 244 244 248 249 244 239 239 242 243 242 242 243 247 253 256 258 258 256 257 260 263 264 263 265 268 268 264 260 259 260 259 257 256 249
284 282 279 276 274 272 270 268 266 263 262 260 258 258 257 256 252 249 250 251 250 249 248 248 250 246 240 240 240 235 237 249 251 247 242 239 241 241 240 240 240 243 250 256 257 257 256 256 258 263 266 265 266 267 268 268 263 260 260 259 259 259 256
288 283 280 276 273 272 270 268 266 263 261 260 258 257 256 256 254 249 248 249 248 245 243 243 245 240 235 239 237 231 235 249 250 246 244 242 243 242 240 240 242 243 249 254 255 255 255 254 256 261 264 264 264 265 266 266 263 260 259 258 259 261 261
299 291 284 279 275 272 269 267 265 262 261 259 258 257 256 255 255 252 249 249 248 243 238 239 241 238 236 239 236 232 237 245 246 243 243 243 244 244 244 244 245 246 249 252 252 253 254 255 257 260 262 261 262 263 264 263 261 259 258 256 256 259 262
311 303 296 289 283 279 275 271 267 263 261 259 258 256 255 254 253 253 251 250 250 245 240 242 245 244 241 239 237 239 243 243 242 244 246 247 247 247 247 247 246 247 249 250 251 252 253 254 257 259 261 262 261 260 258 257 258 257 256 255 253 255 259
318 313 308 302 296 290 284 279 274 271 268 266 264 260 258 257 255 254 253 253 254 251 244 244 245 245 244 241 240 243 247 245 245 248 250 250 249 248 249 249 249 249 249 248 248 249 250 251 255 258 260 261 259 257 255 254 256 256 255 253 251 251 254
325 322 318 314 309 303 296 288 283 281 278 275 274 270 267 266 263 261 259 258 260 259 253 248 246 244 243 241 240 243 247 249 248 249 250 249 249 251 253 253 251 250 251 249 245 243 245 250 254 253 254 256 256 256 258 258 257 257 256 254 253 250 248
330 330 328 324 319 315 310 303 299 298 292 285 279 275 275 276 273 271 268 265 265 264 259 253 248 244 242 241 241 243 246 248 247 246 246 247 251 254 253 252 251 251 253 250 242 240 245 252 254 249 246 253 259 260 261 260 256 256 255 253 253 251 247
336 337 335 331 327 324 321 319 319 317 307 296 282 271 270 274 278 279 277 274 271 266 262 257 249 243 240 239 242 245 247 247 246 245 244 245 250 252 250 250 252 251 248 243 239 244 250 253 254 250 245 251 261 265 264 260 255 254 254 253 252 252 249
340 340 339 334 330 328 327 327 330 327 317 306 290 270 264 268 275 280 282 282 279 273 266 259 250 243 240 239 242 245 246 247 248 248 247 248 250 252 249 245 244 243 242 241 244 251 253 251 250 249 250 255 260 262 264 262 255 251 254 255 254 254 253
342 340 337 332 328 324 321 320 323 324 320 312 297 274 262 263 267 275 283 285 285 282 274 264 253 244 241 241 244 247 247 248 250 249 249 250 251 251 248 242 238 240 245 247 249 252 251 248 249 252 258 263 260 253 255 260 257 252 253 254 254 255 258
339 338 334 331 327 321 316 316 317 316 314 313 306 287 272 270 272 276 283 288 288 284 279 272 261 251 245 243 246 250 251 249 250 251 251 251 250 247 243 240 237 240 246 248 248 249 247 247 251 257 260 261 258 248 247 255 259 258 257 257 259 260 260
335 334 333 330 326 319 314 317 319 315 312 312 307 294 280 279 281 283 287 291 293 290 284 277 269 261 254 248 247 250 252 251 250 252 254 253 249 243 239 237 236 239 245 248 249 250 250 250 253 255 253 254 258 257 254 259 266 269 267 265 264 262 259
333 332 332 331 329 323 318 318 315 310 308 307 303 295 281 275 277 281 286 291 295 297 294 286 275 268 263 258 251 248 248 249 249 249 252 252 248 243 239 236 236 240 245 248 250 253 255 255 254 253 251 251 256 262 264 267 268 267 266 265 263 262 260
331 332 334 336 336 331 323 318 313 305 299 297 296 293 285 278 275 277 283 289 294 300 302 296 284 273 268 267 260 248 243 244 246 247 249 251 249 246 244 239 238 241 245 248 252 254 257 258 257 256 255 253 254 257 260 264 261 255 258 263 261 260 260
332 334 339 343 345 343 335 328 322 312 301 294 293 292 287 283 279 276 277 284 290 297 304 304 294 280 271 268 266 254 241 238 241 244 247 250 252 250 247 243 242 244 246 249 255 259 261 262 261 260 258 255 254 251 250 256 259 254 252 259 262 260 260
336 337 345 355 356 352 347 341 333 324 314 307 300 295 290 284 281 278 277 280 284 290 300 309 308 294 279 272 270 260 240 232 235 240 243 248 252 252 248 246 247 250 251 254 260 264 265 265 265 264 261 258 254 249 243 247 257 258 250 248 257 262 255
339 343 356 7 3 355 349 342 335 330 325 321 314 304 295 287 281 278 275 275 279 285 294 308 315 311 296 282 274 261 238 229 232 237 240 244 248 249 249 251 254 257 258 261 264 266 268 269 268 265 262 258 252 245 241 242 250 255 250 244 252 261 254
347 354 2 5 359 353 349 342 337 336 330 323 322 319 308 297 291 286 280 271 267 277 292 305 312 314 309 297 282 261 236 229 232 237 241 244 247 249 252 256 261 264 265 266 267 268 269 268 265 261 258 253 247 242 241 242 243 247 249 247 250 254 252
356 358 355 354 356 358 357 355 353 350 341 327 321 319 315 308 303 298 289 273 256 258 280 296 303 307 307 296 282 262 237 232 236 240 244 247 250 253 256 260 263 265 266 268 267 267 266 262 257 254 253 248 243 243 244 244 240 239 242 247 249 247 245
356 347 340 347 0 9 6 3 1 355 352 349 338 324 317 317 317 308 292 277 258 252 265 277 280 287 288 277 267 257 242 237 238 242 247 250 253 256 257 259 260 261 261 261 257 254 254 254 253 251 250 246 243 245 249 247 239 234 237 244 250 248 240
346 334 334 344 356 8 11 8 4 358 358 1 358 347 332 322 322 316 300 285 270 261 266 272 270 267 265 266 266 259 249 242 239 240 245 249 252 255 255 255 255 254 252 248 246 245 246 249 252 251 248 247 245 246 250 246 236 233 237 244 252 251 241
338 330 332 339 345 357 6 5 2 358 356 357 357 353 348 339 329 320 311 301 283 269 266 268 272 274 272 274 275 268 256 249 243 241 241 241 244 247 248 248 250 250 248 246 247 249 248 247 249 247 244 245 244 243 244 239 232 232 237 242 250 251 242
337 331 332 335 339 348 353 352 351 352 350 350 350 348 350 349 341 327 315 300 282 273 271 272 276 281 279 274 271 265 257 250 246 244 243 242 242 242 244 247 250 250 250 248 247 247 245 244 243 240 239 241 237 234 235 233 231 232 235 239 245 246 238
336 333 335 335 337 342 346 343 341 342 343 344 343 343 348 351 344 334 322 305 290 284 284 285 286 286 280 268 261 259 257 251 248 248 248 247 247 246 247 250 252 252 252 252 249 246 243 241 240 238 239 240 235 233 236 238 236 236 235 237 239 236 230
333 334 337 336 334 339 342 338 336 337 337 337 335 338 347 352 346 339 334 324 314 305 298 293 289 288 286 278 269 266 265 261 257 257 255 252 251 251 250 250 250 248 247 247 251 251 244 238 238 240 240 240 239 239 239 236 233 233 234 234 233 230 227
332 331 334 332 329 335 342 338 333 330 328 326 328 335 345 350 345 340 336 331 325 319 312 302 293 290 288 283 276 272 270 267 263 262 262 261 259 257 254 252 249 247 244 242 245 247 241 235 236 239 238 238 240 239 235 231 230 232 233 232 232 230 229
320 314 316 319 316 318 328 330 324 318 318 321 328 337 346 350 346 340 335 330 327 323 319 313 304 296 289 284 282 280 277 275 272 270 272 273 270 265 261 256 251 247 244 240 239 240 239 235 235 235 235 237 237 235 230 228 229 232 233 232 231 227 224
307 297 296 301 301 298 300 306 310 312 315 320 327 337 345 349 348 342 334 328 326 324 319 310 294 287 288 284 281 282 284 283 280 277 277 277 275 271 269 266 258 249 242 238 236 237 237 234 230 230 234 239 238 232 227 225 227 230 230 230 229 226 224
319 303 293 291 291 292 293 297 304 310 313 316 325 336 344 348 348 343 334 327 324 324 328 331 313 301 313 310 287 281 287 287 284 286 285 283 279 273 270 270 264 254 243 235 231 231 232 232 230 231 235 239 238 231 224 223 226 227 224 220 221 226 230
339 323 306 297 294 293 292 294 301 308 312 317 324 332 341 346 346 341 336 332 333 345 13 37 52 54 61 76 84 70 44 27 18 5 342 321 311 303 296 288 277 263 247 233 228 224 220 221 228 233 234 234 235 230 224 224 225 224 220 218 221 227 231
351 342 327 314 307 301 296 295 303 313 318 320 324 330 338 342 339 337 340 349 7 37 51 63 78 80 75 65 50 36 28 19 8 357 345 340 339 334 328 322 309 292 265 238 229 224 213 210 218 228 231 231 230 226 223 224 224 221 219 219 223 227 228
349 349 345 338 332 323 314 311 315 320 322 323 325 329 333 330 323 327 343 4 30 50 55 57 60 57 45 28 14 3 353 344 337 332 329 331 334 330 323 319 313 306 292 252 230 224 216 211 213 219 226 230 229 225 222 223 223 222 220 220 222 225 225
344 347 349 350 348 343 337 336 334 330 326 326 329 333 330 320 314 326 339 353 5 14 26 28 17 10 7 1 352 344 337 330 325 322 320 321 323 319 311 307 302 294 294 280 238 223 220 218 216 217 222 226 226 224 223 223 223 222 221 223 225 226 225